Вернуться в каталог

STARLINK-31368

АктивенСвязьVLEO
NORAD 58970·PAYLOAD·🇺🇸 United States

Запущен Feb 15, 2024 с Vandenberg Space Force Base

Loading…

Ближайшие Пролёты (ближайшие 24 часа)

TLE

СвежийSource: CelesTrak SupGP

Эпоха: Sep 15, 2026, 01:46 UTC

1 58970C 24031F   26258.07409722  .00062349  00000+0  18415-2 0  2585
2 58970  53.1573 135.2465 0001210  93.5884 279.1032 15.34369680    12

Отслеживайте STARLINK-31368 в реальном времени с AllMySat

Download on the App Store